Weather History for Ft Pierce, FL

Change the Weather History Date:

Friday, December 28, 2012

  Actual Average Record
Temperature  
Mean Temperature 58 °F -  
Max Temperature 75 °F 74 °F 86 °F (1981)
Min Temperature 42 °F 52 °F 27 °F (2010)
Degree Days  
Heating Degree Days 6    
Growing Degree Days 8 (Base 50)    
Moisture  
Dew Point 56 °F    
Average Humidity 82    
Maximum Humidity 96    
Minimum Humidity 53    
Precipitation  
Precipitation 0.05 in - - ()
Sea Level Pressure  
Sea Level Pressure 30.04 in    
Wind  
Wind Speed 4 mph (SE)    
Max Wind Speed 13 mph    
Max Gust Speed -    
Visibility 9 miles    
Events Rain    
Averages and records for this station are not official NWS values.
T = Trace of Precipitation, MM = Missing Value Source: NWS Daily Summary

Daily Weather History Graph

Daily Weather History Graph

Search for Another Location

Airport:

Trip Planner

Search our weather history database for the weather conditions in past years. The results will help you decide how hot, cold, wet, or windy it might be!

Date:

Astronomy

Dec. 28, 2012 Rise Set
Actual Time 7:10 AM EST 5:36 PM EST
Civil Twilight 6:45 AM EST 6:01 PM EST
Nautical Twilight 6:16 AM EST 6:30 PM EST
Astronomical Twilight 5:47 AM EST 6:59 PM EST
Moon 6:06 PM EST (12/28) 7:08 AM EST (12/28)
Length of Visible Light 11h 16m
Length of Day
10h 25m
Full, 100% of the Moon is Illuminated
Dec 28
Full
Jan 4
Last Quarter
Jan 11
New
Jan 18
First Quarter
Jan 26
Full

Hourly Weather History & Observations

Time (EST) Temp. Windchill Dew Point Humidity Pressure Visibility Wind Dir Wind Speed Gust Speed Precip Events Conditions
12:01 AM 42.8 °F 41.1 °F 41.0 °F 93% 30.09 in 2.5 mi WNW 3.5 mph - N/A   Clear
12:10 AM 42.8 °F 41.1 °F 39.2 °F 87% 30.09 in 4.0 mi WNW 3.5 mph - N/A   Clear
12:53 AM 42.1 °F - 41.0 °F 96% 30.08 in 6.0 mi Calm Calm - N/A   Clear
1:53 AM 43.0 °F - 41.0 °F 93% 30.07 in 8.0 mi Calm Calm - N/A   Clear
2:53 AM 44.1 °F - 42.1 °F 93% 30.07 in 9.0 mi Calm Calm - N/A   Clear
3:53 AM 45.0 °F 43.5 °F 42.1 °F 90% 30.06 in 10.0 mi NW 3.5 mph - N/A   Clear
4:53 AM 44.1 °F 41.5 °F 42.1 °F 93% 30.06 in 9.0 mi WNW 4.6 mph - N/A   Clear
5:53 AM 45.0 °F - 43.0 °F 93% 30.06 in 9.0 mi Calm Calm - N/A   Clear
6:53 AM 42.1 °F 40.2 °F 39.9 °F 92% 30.08 in 8.0 mi West 3.5 mph - N/A   Clear
7:53 AM 46.0 °F - 44.1 °F 93% 30.08 in 10.0 mi Calm Calm - N/A   Clear
8:53 AM 57.0 °F - 52.0 °F 83% 30.09 in 10.0 mi Calm Calm - N/A   Clear
9:53 AM 69.1 °F - 57.9 °F 68% 30.10 in 10.0 mi NNE 3.5 mph - N/A   Clear
10:53 AM 73.0 °F - 55.0 °F 53% 30.09 in 10.0 mi ESE 10.4 mph - N/A   Clear
11:53 AM 73.9 °F - 55.9 °F 53% 30.07 in 10.0 mi ESE 10.4 mph - N/A   Clear
12:53 PM 75.0 °F - 57.9 °F 55% 30.04 in 10.0 mi SE 11.5 mph - N/A   Partly Cloudy
1:53 PM 73.9 °F - 57.9 °F 57% 30.02 in 10.0 mi SE 12.7 mph - N/A   Mostly Cloudy
2:53 PM 73.0 °F - 59.0 °F 61% 30.01 in 10.0 mi ESE 10.4 mph - N/A   Scattered Clouds
3:53 PM 72.0 °F - 61.0 °F 68% 30.00 in 10.0 mi SE 9.2 mph - N/A   Scattered Clouds
4:53 PM 72.0 °F - 63.0 °F 73% 29.99 in 10.0 mi SE 11.5 mph - N/A   Mostly Cloudy
5:53 PM 72.0 °F - 64.0 °F 76% 29.99 in 10.0 mi SE 9.2 mph - 0.00 in   Overcast
6:00 PM 71.6 °F - 64.4 °F 78% 29.99 in 10.0 mi SSE 10.4 mph - N/A   Overcast
6:53 PM 72.0 °F - 64.9 °F 78% 29.99 in 10.0 mi SE 8.1 mph - N/A   Overcast
7:00 PM 71.6 °F - 64.4 °F 78% 29.99 in 10.0 mi SE 8.1 mph - N/A   Mostly Cloudy
7:45 PM 71.6 °F - 66.2 °F 83% 29.99 in 10.0 mi ESE 6.9 mph - 0.01 in Rain Light Rain
7:53 PM 71.1 °F - 66.9 °F 87% 30.01 in 9.0 mi SE 4.6 mph - 0.01 in Rain Light Rain
8:34 PM 71.6 °F - 68.0 °F 88% 30.00 in 9.0 mi SSE 4.6 mph - 0.01 in Rain Light Rain
8:53 PM 71.1 °F - 68.0 °F 90% 30.01 in 10.0 mi Calm Calm - 0.01 in   Overcast
9:11 PM 71.6 °F - 68.0 °F 88% 30.01 in 10.0 mi Calm Calm - 0.00 in   Overcast
9:39 PM 69.8 °F - 68.0 °F 94% 30.01 in 7.0 mi Calm Calm - 0.00 in Rain Light Rain
9:53 PM 70.0 °F - 68.0 °F 93% 30.01 in 7.0 mi Calm Calm - 0.00 in   Overcast
10:53 PM 71.1 °F - 69.1 °F 93% 30.01 in 8.0 mi South 4.6 mph - 0.00 in Rain Light Rain
11:53 PM 71.1 °F - 69.1 °F 93% 29.98 in 8.0 mi SSE 6.9 mph - 0.03 in   Mostly Cloudy